User: anonymous   Login
Location: Albany
(35.0000°S, 118.0000°E)
Time: 18:02:56
(UTC-04:00)
Language:

Cosmos 1758 Rocket - Orbit

View from above orbital plane
View from above orbital plane
View from above satellite
View from above satellite

Ground track
Ground track

The orbit data is extracted from the following two-line orbital elements,

1 16792U 86046B   18114.89455841 +.00147514 +00000-0 +17215-1 0  9997
2 16792 082.4802 269.0897 0024372 349.6330 166.6750 14.84153864721081
Epoch (UTC): 24 April 2018 21:28:09
Eccentricity: 0.0024372
inclination: 82.4802°
perigee height: 599 km
apogee height: 633 km
right ascension of ascending node: 269.0897°
argument of perigee: 349.6330°
revolutions per day: 14.84153864
mean anomaly at epoch: 166.6750°
orbit number at epoch: 72108

The dashed part of the orbit path shows where the satellite is in the earth's shadow,  

DLR